Theta_e
309 309 309 309 309 309 310 310 310 310 311 311 312 312 312 313 313 313 313 313 313 313 313 312 312 313 313 314 315 314 307 308 310 310 313 313 313 313 314 313 314 314 313 312 313
309 309 309 309 309 309 310 310 310 310 311 311 312 312 312 312 313 313 314 312 312 313 313 312 312 312 313 315 316 310 307 308 308 309 313 313 313 314 314 312 313 313 313 313 313
308 308 308 309 309 309 310 310 310 311 311 311 312 312 312 312 314 313 312 312 312 311 311 312 313 313 313 314 315 311 309 308 311 312 313 313 314 314 313 313 312 312 312 312 313
308 308 308 309 309 309 310 310 311 311 311 311 311 311 312 313 311 313 312 312 312 311 312 313 314 313 311 311 314 313 313 312 314 314 314 313 314 313 313 312 312 312 311 312 313
308 308 309 309 309 310 310 311 311 311 311 310 310 312 315 317 316 316 315 313 313 313 312 313 313 312 310 311 312 313 312 313 314 314 313 312 312 312 311 309 310 310 311 312 312
310 310 310 310 310 311 311 311 310 309 309 310 313 316 317 316 317 317 317 317 316 315 313 313 312 312 312 312 311 311 311 312 313 312 312 311 310 311 308 309 310 310 311 311 311
311 310 310 310 310 310 309 309 309 310 312 315 316 317 317 319 319 318 318 317 316 315 313 312 312 312 312 311 311 311 311 308 310 310 310 310 310 309 308 309 310 310 309 309 310
315 315 315 315 315 315 315 316 315 315 315 316 316 316 317 318 318 318 318 317 315 313 312 311 312 313 313 311 310 310 307 312 311 310 310 310 312 306 307 309 308 307 307 307 308
316 315 315 314 314 313 314 314 314 315 315 315 315 316 316 316 316 316 316 316 315 314 313 312 313 312 311 308 309 307 312 309 311 309 309 309 311 305 307 308 305 304 304 304 305
319 315 315 315 314 314 314 313 313 314 315 316 317 316 316 316 315 315 315 314 314 313 312 313 312 307 305 308 313 311 309 308 310 310 309 309 309 304 305 306 302 301 301 302 304
324 320 316 316 315 314 313 314 315 317 316 316 317 316 316 316 314 313 314 313 312 312 309 309 308 310 310 307 309 308 309 311 309 308 309 308 308 306 302 301 300 299 300 301 302
324 323 320 318 317 315 314 314 315 316 316 316 317 316 317 315 313 312 312 312 310 309 307 307 308 309 308 307 308 309 309 309 308 307 308 308 309 304 301 301 300 299 299 299 300
324 324 322 321 322 319 317 316 314 317 318 318 316 316 316 316 315 313 312 311 309 307 307 309 310 307 308 307 308 307 308 308 311 310 308 309 310 305 300 299 299 298 299 299 299
324 323 325 323 320 322 322 322 317 318 315 315 316 317 316 316 313 315 312 311 309 309 308 308 308 310 308 309 309 310 306 308 309 311 313 308 316 306 302 300 298 297 298 298 297
323 323 323 322 321 321 323 323 319 317 326 314 313 313 314 316 312 310 310 310 309 310 311 312 309 309 311 312 308 312 307 307 309 310 308 308 310 307 302 302 299 297 297 297 296
323 323 322 323 321 321 322 320 318 319 321 317 310 309 312 310 308 308 309 310 311 310 309 311 309 309 310 308 308 305 307 306 305 306 310 309 311 310 304 304 300 297 297 296 295
322 322 321 321 321 320 320 319 320 318 317 315 311 308 311 307 307 307 308 309 312 314 312 311 310 308 307 307 306 306 308 311 312 311 313 307 308 311 304 302 301 298 297 296 295
321 322 322 321 322 322 319 318 317 317 317 308 308 307 312 307 307 307 307 309 308 309 311 315 316 309 306 308 309 305 308 312 313 313 313 308 311 311 301 301 301 299 298 296 294
318 322 323 322 320 321 317 320 319 316 315 310 309 310 309 307 308 307 307 308 310 306 316 313 314 307 305 305 307 307 308 308 308 295 307 309 309 302 300 299 299 297 296 295 294
318 320 320 322 321 319 317 320 317 315 313 310 316 310 311 310 309 307 306 306 309 307 308 311 314 308 306 307 306 307 306 310 308 309 309 310 309 311 302 300 298 297 296 296 295
319 319 318 319 319 316 318 317 317 316 315 313 315 315 309 311 311 307 308 308 307 306 308 308 311 309 307 307 308 307 308 307 308 309 310 308 309 304 304 300 298 298 296 296 296
316 316 317 319 317 317 317 317 316 316 316 316 316 315 312 312 312 311 310 309 308 307 309 308 310 309 307 305 304 306 307 308 312 308 304 306 308 300 301 301 299 298 297 297 297
313 314 315 316 319 317 315 316 315 316 316 317 317 316 314 314 316 313 312 306 307 307 309 308 312 312 312 308 305 307 305 306 305 305 304 309 309 300 300 299 299 298 298 297 296
310 311 310 313 310 313 317 317 317 315 316 317 317 316 317 317 315 316 312 306 306 307 308 309 310 312 318 312 306 307 306 305 308 304 306 310 306 303 300 300 298 298 298 297 297
307 307 306 309 309 311 309 307 315 316 314 316 316 317 318 318 318 316 313 305 306 307 307 311 312 306 304 303 305 305 304 305 306 308 311 307 308 305 303 301 300 300 298 298 298
305 304 303 301 304 308 310 306 310 311 312 312 313 315 315 312 313 310 309 308 309 304 306 304 311 309 307 301 302 305 304 303 305 305 305 303 305 302 303 302 300 300 298 297 298
303 303 304 304 303 305 305 306 306 308 306 307 308 310 310 308 308 307 308 307 304 305 305 305 304 307 309 298 302 307 304 303 303 302 305 306 307 295 296 298 300 300 299 300 300
Wind_Speed
4 4 4 4 4 5 5 5 5 6 6 7 8 8 9 10 11 12 12 6 5 5 5 5 4 2 0 3 4 2 4 2 4 6 3 0 2 2 3 2 1 3 4 3 1
7 7 7 7 7 7 7 7 7 8 8 9 9 10 11 11 12 12 5 3 2 2 3 4 4 3 3 3 2 4 3 6 4 4 3 1 0 4 2 3 1 1 4 8 8
9 9 9 9 9 9 9 10 10 10 10 10 11 11 11 12 12 1 1 3 4 3 4 5 6 3 3 1 1 3 4 3 2 6 4 2 3 2 1 2 2 4 7 3 2
12 11 12 11 11 11 11 11 12 12 12 12 12 12 11 9 3 2 3 4 3 3 5 6 4 2 3 2 1 1 2 4 2 3 2 2 2 3 6 2 2 6 4 4 3
14 14 13 14 13 13 13 14 14 14 14 14 13 12 11 6 8 9 7 7 6 5 6 6 5 4 4 4 3 2 2 4 6 9 10 8 8 5 5 4 5 7 7 5 3
15 16 16 16 15 15 15 15 16 15 14 14 13 12 10 8 8 9 9 9 9 8 9 8 3 4 3 3 4 4 3 8 9 9 8 5 0 5 4 10 9 6 5 4 4
16 17 17 17 17 17 16 16 16 15 15 15 14 13 14 19 11 9 9 9 9 9 9 9 8 5 5 3 2 1 3 6 5 4 4 5 3 2 8 9 7 5 4 3 4
15 16 17 18 18 18 17 17 17 17 16 16 15 13 11 13 14 16 18 14 9 9 9 8 8 6 3 6 4 2 4 3 2 3 0 4 3 3 5 4 5 5 4 3 4
17 16 16 16 18 18 17 16 16 16 16 15 13 9 10 13 14 16 14 13 13 10 9 8 9 5 5 6 3 5 3 4 7 3 2 2 3 7 5 6 8 6 5 5 5
19 18 17 17 16 16 16 16 15 15 16 14 14 6 15 8 8 11 14 13 9 12 9 7 4 3 2 4 6 7 4 4 5 2 2 3 7 4 8 8 9 9 9 8 8
20 20 19 18 17 15 13 12 10 8 15 13 7 6 3 10 8 10 15 16 11 9 6 4 4 9 16 10 4 6 4 5 4 3 4 7 6 1 6 9 11 12 13 13 14
23 22 21 19 19 17 14 8 8 5 10 16 25 22 18 8 6 13 17 13 10 6 8 3 9 11 5 6 4 3 4 5 4 4 4 6 8 1 4 2 6 14 15 18 20
24 24 23 21 22 22 20 16 13 11 6 9 23 23 29 26 15 18 23 11 5 7 10 9 4 10 7 5 6 5 6 5 7 2 3 2 5 5 3 7 9 12 16 19 21
23 23 27 24 25 26 28 14 16 4 3 6 7 8 15 15 8 21 27 10 5 12 8 7 5 6 5 5 8 6 9 7 6 4 4 1 5 3 4 5 6 12 16 18 20
25 22 19 30 27 22 27 20 15 9 5 1 4 5 13 11 12 6 24 11 6 7 7 6 7 5 5 8 7 5 6 7 4 3 1 2 1 3 6 6 8 14 18 19 20
28 26 20 28 35 32 22 18 24 6 9 4 3 4 5 2 2 6 7 5 4 4 2 3 1 6 8 2 7 9 6 5 4 3 3 10 9 4 6 7 11 16 22 23 23
28 26 24 26 32 31 28 24 3 5 1 6 5 6 3 5 2 4 6 6 7 5 6 0 4 4 5 6 3 3 6 1 1 1 6 1 4 7 5 4 17 25 31 29 26
30 28 32 30 30 32 26 5 6 7 8 4 4 4 7 7 4 5 6 6 5 2 3 7 6 11 7 8 8 8 7 5 7 4 2 2 6 5 1 3 15 31 35 31 28
27 31 40 41 34 32 26 9 7 6 6 9 3 4 5 5 6 5 8 6 10 11 9 7 6 1 3 4 8 6 6 4 5 2 2 4 4 1 3 3 19 25 31 33 30
25 32 34 43 37 38 8 14 7 6 6 5 15 9 12 9 9 9 11 7 7 14 6 6 2 2 3 5 2 4 8 3 1 2 4 3 4 5 7 10 11 20 29 36 33
24 16 20 30 32 16 5 7 5 13 11 7 12 10 7 9 12 7 10 3 8 9 16 6 3 1 4 6 10 4 4 2 4 4 5 1 5 4 8 15 19 26 32 41 39
20 5 10 28 11 4 11 7 9 10 22 7 2 4 9 9 10 9 15 8 12 16 13 9 3 4 8 2 1 2 7 7 5 5 2 2 6 1 3 16 23 28 36 43 41
9 9 15 25 7 9 3 5 11 8 13 9 11 11 5 10 5 12 7 1 6 8 14 9 4 2 4 1 2 6 5 4 5 3 7 5 5 2 5 14 25 31 37 42 42
5 2 7 18 5 3 13 9 10 14 5 12 5 8 5 9 10 8 8 4 2 3 2 8 5 8 14 4 5 7 6 6 7 4 6 12 4 4 5 10 18 27 32 42 42
6 3 2 2 4 6 4 2 3 6 10 16 6 14 10 9 11 9 6 3 2 5 1 5 7 4 2 3 3 1 4 9 9 11 9 5 10 7 12 14 28 35 31 39 42
4 3 5 2 4 2 8 5 9 4 4 3 3 7 14 9 7 8 7 4 4 1 2 2 2 3 4 2 3 4 6 6 5 1 4 3 10 5 10 16 17 29 35 38 42
12 11 4 5 3 4 4 5 9 5 2 1 3 5 5 7 2 0 6 12 10 6 4 6 5 2 3 3 3 5 8 10 6 5 8 10 13 5 5 10 24 29 34 40 40
Wind_Direction
275 269 272 277 281 287 295 302 305 310 313 315 318 321 320 319 317 314 312 290 267 253 242 235 231 219 21 71 70 93 64 161 205 165 205 128 71 172 304 235 27 62 5 324 261
271 279 280 281 282 284 285 289 295 300 304 308 313 316 317 318 317 308 283 261 235 207 192 184 171 148 104 93 82 88 108 214 192 200 184 303 136 320 271 323 243 91 350 275 272
267 267 271 275 280 283 286 288 291 292 295 299 305 308 313 319 321 297 160 142 132 135 140 150 148 122 101 75 50 131 173 199 220 223 243 187 287 235 273 300 166 298 319 291 227
263 266 269 271 274 277 280 282 286 288 292 295 299 302 307 312 298 208 185 171 161 164 179 174 169 123 103 134 158 78 239 212 241 190 226 235 226 256 229 220 262 306 148 121 112
267 266 268 269 270 274 277 280 281 283 286 290 294 298 305 284 257 256 244 232 231 229 218 217 211 168 161 157 150 162 263 247 264 266 272 264 240 254 296 264 182 140 134 111 72
264 267 268 269 270 271 274 276 279 281 283 286 290 293 294 268 257 251 248 246 246 232 222 215 213 193 142 159 168 180 254 278 281 263 257 230 119 170 120 140 141 138 94 57 33
269 268 269 271 271 271 272 275 277 279 282 284 286 287 278 265 259 247 248 245 238 230 223 214 208 184 159 129 162 134 311 319 261 257 225 178 106 109 147 165 124 101 89 66 41
271 271 272 272 271 272 272 274 277 279 280 281 280 282 263 263 248 246 244 241 223 212 211 206 201 176 173 129 48 73 45 346 280 161 238 170 229 22 157 229 117 113 110 96 81
275 272 272 274 274 271 271 273 274 276 277 279 277 261 267 252 244 238 231 225 221 212 199 187 171 154 139 103 22 5 222 215 315 215 103 176 230 180 27 177 130 121 111 101 90
275 274 273 271 271 273 273 272 272 273 270 271 253 261 240 243 223 215 210 203 185 180 157 169 149 96 66 121 217 194 205 224 230 186 165 192 257 128 36 144 129 121 114 109 104
265 270 270 271 269 266 269 273 278 264 233 215 225 204 253 221 213 200 193 181 161 167 160 163 128 207 204 195 139 143 180 193 234 243 179 229 242 28 102 117 131 125 123 116 108
264 262 264 265 265 261 254 238 226 265 294 250 245 243 242 236 210 201 184 178 173 175 122 85 223 220 138 154 165 156 168 232 280 228 172 254 254 339 27 86 151 143 132 124 117
266 260 257 257 259 255 250 244 250 269 268 260 240 238 236 227 222 209 191 198 170 148 191 181 200 168 144 143 160 206 188 205 222 358 235 322 252 206 56 109 138 143 137 131 126
258 260 257 245 246 245 248 248 238 266 293 253 221 229 204 196 228 216 203 191 197 192 161 235 209 140 157 184 175 224 204 180 183 139 234 125 283 236 168 150 156 155 151 141 134
254 262 256 246 239 234 249 234 200 163 250 37 150 163 163 183 143 174 185 203 179 169 150 225 160 167 178 212 153 235 145 162 144 171 88 219 283 243 140 204 190 179 165 153 144
245 251 242 250 250 243 234 205 163 160 228 230 126 146 127 143 112 110 161 152 139 113 336 246 177 160 191 102 164 146 83 62 67 113 248 209 188 228 191 196 172 180 173 163 156
244 248 237 238 241 247 231 170 184 196 126 195 185 169 159 158 147 150 161 166 165 143 216 258 210 193 152 97 67 155 123 90 324 224 230 67 180 254 185 177 174 174 177 171 166
244 245 242 239 241 245 210 205 191 199 207 112 126 112 177 157 195 166 134 181 242 116 126 182 267 169 190 174 174 184 167 172 205 200 230 112 226 253 4 245 183 176 175 172 170
248 248 244 242 237 227 185 224 204 182 188 138 75 134 215 203 161 146 196 203 197 183 194 178 266 162 165 152 145 181 197 159 108 35 58 217 272 227 96 55 155 167 175 178 176
246 246 253 235 237 213 199 221 215 206 134 173 198 175 184 185 165 182 178 201 201 184 190 212 197 228 174 115 29 174 154 102 16 188 253 264 263 237 199 183 170 173 180 184 182
237 240 251 237 233 203 212 210 197 199 189 181 216 195 197 178 186 194 206 230 201 187 181 156 172 255 124 216 176 149 173 86 137 163 188 235 251 215 197 179 183 186 186 187 186
230 230 219 192 198 217 215 184 184 186 209 210 200 236 190 180 199 210 206 207 182 150 185 190 122 177 211 297 310 195 189 167 170 209 217 151 259 352 234 177 177 185 191 194 192
229 227 200 195 227 220 194 201 200 171 195 195 200 200 172 193 204 216 188 108 180 182 167 173 184 134 319 323 305 211 196 139 99 84 191 158 256 59 108 159 187 187 197 199 196
205 236 211 216 246 180 239 213 214 206 197 202 202 156 165 199 211 199 195 186 184 168 196 122 164 208 222 187 142 182 181 178 171 174 173 226 229 233 190 185 193 203 200 203 199
228 208 185 211 231 200 179 62 268 207 216 206 204 209 201 226 214 213 170 132 133 184 64 114 205 165 90 48 67 128 156 179 197 208 202 200 221 204 199 203 205 205 200 202 202
222 197 170 214 273 322 194 191 213 194 205 204 260 204 198 191 196 191 143 163 172 209 118 44 162 136 148 41 44 303 223 201 230 17 261 177 259 187 205 200 191 205 200 200 203
209 211 178 185 167 166 202 186 203 210 310 120 239 178 252 312 138 231 172 145 150 159 141 148 134 121 202 34 63 294 222 198 189 190 195 218 240 169 198 204 203 203 202 203 205